PDT,Max TemperatureF,Mean TemperatureF,Min TemperatureF,Max Dew PointF,MeanDew PointF,Min DewpointF,Max Humidity, Mean Humidity, Min Humidity, Max Sea Level PressureIn, Mean Sea Level PressureIn, Min Sea Level PressureIn, Max VisibilityMiles, Mean VisibilityMiles, Min VisibilityMiles, Max Wind SpeedMPH, Mean Wind SpeedMPH, Max Gust SpeedMPH,PrecipitationIn, CloudCover, Events, WindDirDegrees
2012-9-1,78,64,50,52,48,43,94,59,28,30.03,29.99,29.93,10,10,8,8,3,,0.00,0,,215
2012-9-2,87,70,53,46,42,37,67,37,18,30.00,29.97,29.93,10,10,7,8,2,,0.00,0,,220
2012-9-3,91,78,66,46,42,39,43,30,16,30.01,29.98,29.94,10,10,9,12,5,,0.00,0,,133
2012-9-4,93,80,68,45,41,37,35,27,17,30.03,30.00,29.97,10,10,10,10,6,,0.00,0,,118
2012-9-5,87,74,62,54,45,39,50,33,22,30.00,29.97,29.94,10,10,10,10,4,,0.00,0,,122
2012-9-6,86,75,64,57,49,39,64,40,22,30.02,29.97,29.94,10,10,10,10,4,,0.00,1,,192
2012-9-7,89,76,62,52,47,43,55,38,24,30.09,30.04,30.01,10,10,10,9,3,,0.00,0,,265
2012-9-8,91,80,69,54,51,46,53,37,24,30.05,30.00,29.94,10,10,10,9,6,,0.00,0,,146
2012-9-9,89,78,68,54,44,34,53,32,15,29.98,29.94,29.89,10,10,9,10,6,,0.00,0,,161
2012-9-10,87,70,53,48,42,36,67,35,17,29.94,29.90,29.84,10,10,10,10,3,,0.00,0,,231
2012-9-11,89,76,64,50,45,43,52,36,20,29.96,29.90,29.86,10,10,10,10,3,,0.00,2,,217
2012-9-12,89,78,66,50,46,45,46,36,22,30.07,30.03,29.96,10,10,10,10,5,,0.00,3,,122
2012-9-13,93,78,64,52,45,36,52,31,17,30.12,30.08,30.04,10,10,10,9,3,,0.00,0,,145
2012-9-14,91,80,69,54,47,43,50,32,21,30.10,30.06,30.02,10,10,10,12,5,,0.00,0,,148
2012-9-15,91,80,68,48,43,37,38,28,17,30.11,30.06,30.02,10,10,10,10,5,,0.00,0,,139
2012-9-16,91,80,69,45,38,34,31,23,15,30.06,30.03,30.00,10,10,9,10,6,,0.00,0,,148
2012-9-17,86,75,64,46,40,36,46,30,19,30.03,30.00,29.97,10,10,10,7,2,,0.00,0,,230
2012-9-18,87,76,66,50,45,41,52,35,23,30.08,30.04,30.01,10,10,10,10,4,,0.00,0,,271
2012-9-19,86,76,64,48,44,37,46,34,23,30.09,30.05,30.02,10,10,10,9,5,,0.00,0,,164
2012-9-20,87,74,60,48,44,39,52,36,22,30.06,30.02,29.98,10,10,10,8,1,,0.00,0,,263
2012-9-21,87,72,57,50,45,41,55,35,22,30.00,29.96,29.91,10,10,10,8,3,,0.00,0,,262
2012-9-22,91,78,64,48,45,41,52,32,21,29.97,29.94,29.91,10,10,10,9,3,,0.00,0,,119
2012-9-23,89,79,69,48,45,37,41,32,22,30.00,29.95,29.92,10,10,10,14,5,20,0.00,0,,146
2012-9-24,84,73,62,45,38,34,49,32,18,29.97,29.93,29.90,10,10,9,10,4,,0.00,0,,125
2012-9-25,86,73,60,45,41,36,42,32,22,29.92,29.89,29.85,10,10,10,9,1,,0.00,0,,239
2012-9-26,84,74,64,48,46,43,49,36,26,29.92,29.88,29.86,10,10,10,10,4,,0.00,0,,138
2012-9-27,91,78,66,48,44,39,46,31,20,29.96,29.92,29.88,10,10,10,9,4,,0.00,0,,126
2012-9-28,91,78,64,54,43,36,59,31,18,29.95,29.91,29.87,10,10,10,9,4,,0.00,0,,130
2012-9-29,91,78,64,48,42,36,49,31,18,30.06,30.01,29.94,10,10,10,8,2,,0.00,0,,251
2012-9-30,95,80,64,46,42,37,40,28,14,30.12,30.06,30.02,10,10,8,9,4,,0.00,0,,305